NV0N-20 Weather Reports


Display with metric or nautical units.
time (UTC)temp
F
wind
direction
speed
MPH
gust
MPH
rain 1hr
in
rain 24hr
in
rain mn
in
humidity
%
barometer
mb
20191021234329 48 289 10.0 16.0 0.00 0.00 0.00 32 1016.5
20191021233828 49 289 9.0 14.0 0.00 0.00 0.00 32 1016.3
20191021233328 49 296 11.0 14.0 0.00 0.00 0.00 31 1016.2
20191021232829 50 302 9.0 17.0 0.00 0.00 0.00 31 1016.1
20191021232329 50 319 9.0 18.0 0.00 0.00 0.00 30 1016.0
20191021231827 51 276 12.0 20.0 0.00 0.00 0.00 28 1015.8
20191021231327 51 296 14.0 20.0 0.00 0.00 0.00 28 1015.8
20191021230827 52 319 12.0 20.0 0.00 0.00 0.00 28 1015.8
20191021230328 53 313 10.0 12.0 0.00 0.00 0.00 28 1015.7
20191021225828 53 310 6.0 10.0 0.00 0.00 0.00 28 1015.8
20191021225328 54 326 5.0 7.0 0.00 0.00 0.00 27 1015.7
20191021224827 53 341 0.0 10.0 0.00 0.00 0.00 27 1015.3
20191021224327 53 336 3.0 21.0 0.00 0.00 0.00 27 1015.4
20191021223827 52 350 6.0 21.0 0.00 0.00 0.00 26 1015.0
20191021223327 52 300 13.0 20.0 0.00 0.00 0.00 24 1014.6
20191021222827 52 303 13.0 22.0 0.00 0.00 0.00 26 1014.7
20191021222326 52 288 15.0 21.0 0.00 0.00 0.00 25 1014.5
20191021221826 51 306 9.0 14.0 0.00 0.00 0.00 27 1014.6
20191021221326 50 305 8.0 14.0 0.00 0.00 0.00 29 1014.5
20191021220826 50 281 4.0 17.0 0.00 0.00 0.00 26 1014.4
20191021220326 50 240 8.0 17.0 0.00 0.00 0.00 26 1014.4
20191021215827 50 302 9.0 13.0 0.00 0.00 0.00 27 1014.5
20191021215326 50 276 6.0 15.0 0.00 0.00 0.00 26 1014.4
20191021214826 50 302 10.0 15.0 0.00 0.00 0.00 28 1014.4
20191021214325 50 302 9.0 14.0 0.00 0.00 0.00 28 1014.1
20191021213825 50 279 8.0 15.0 0.00 0.00 0.00 27 1014.1
20191021213325 50 288 8.0 16.0 0.00 0.00 0.00 27 1014.1
20191021212826 50 295 10.0 15.0 0.00 0.00 0.00 27 1013.9
20191021212327 50 278 6.0 14.0 0.00 0.00 0.00 27 1013.9
20191021211825 50 296 8.0 14.0 0.00 0.00 0.00 27 1013.8
20191021211324 50 286 9.0 14.0 0.00 0.00 0.00 28 1013.8
20191021210825 51 330 9.0 16.0 0.00 0.00 0.00 29 1013.7
20191021210324 51 299 5.0 16.0 0.00 0.00 0.00 30 1013.7
20191021205825 51 274 6.0 12.0 0.00 0.00 0.00 27 1013.6
20191021205325 51 320 7.0 12.0 0.00 0.00 0.00 29 1013.6
20191021204824 50 290 7.0 15.0 0.00 0.00 0.00 28 1013.6
20191021204324 50 293 10.0 15.0 0.00 0.00 0.00 27 1013.4
20191021203824 50 247 7.0 13.0 0.00 0.00 0.00 29 1013.4
20191021203324 50 302 8.0 12.0 0.00 0.00 0.00 29 1013.4
20191021202824 50 303 5.0 12.0 0.00 0.00 0.00 28 1013.4
20191021202325 50 266 4.0 17.0 0.00 0.00 0.00 30 1013.4
20191021201825 50 247 5.0 17.0 0.00 0.00 0.00 29 1013.4
20191021201323 50 279 6.0 14.0 0.00 0.00 0.00 27 1013.3
20191021200824 51 268 6.0 16.0 0.00 0.00 0.00 26 1013.4
20191021200324 51 298 7.0 16.0 0.00 0.00 0.00 25 1013.4
20191021195823 51 286 1.0 7.0 0.00 0.00 0.00 26 1013.4
20191021195324 52 298 3.0 9.0 0.00 0.00 0.00 25 1013.3
20191021194823 52 310 6.0 10.0 0.00 0.00 0.00 26 1013.3
20191021194323 53 305 5.0 10.0 0.00 0.00 0.00 24 1013.3
20191021193822 53 261 0.0 6.0 0.00 0.00 0.00 23 1013.4
20191021193323 52 330 0.0 5.0 0.00 0.00 0.00 24 1013.4
20191021192822 52 312 2.0 5.0 0.00 0.00 0.00 23 1013.4
20191021192323 52 350 1.0 2.0 0.00 0.00 0.00 25 1013.4
20191021191822 52 49 0.0 5.0 0.00 0.00 0.00 24 1013.6
20191021191322 52 56 2.0 5.0 0.00 0.00 0.00 23 1013.4
20191021190822 51 133 0.0 4.0 0.00 0.00 0.00 24 1013.4
20191021190322 51 257 2.0 4.0 0.00 0.00 0.00 26 1013.6
20191021185822 51 203 0.0 10.0 0.00 0.00 0.00 25 1013.6
20191021185323 51 17 2.0 10.0 0.00 0.00 0.00 23 1013.6
20191021184822 51 347 4.0 5.0 0.00 0.00 0.00 25 1013.6
20191021184321 50 336 1.0 6.0 0.00 0.00 0.00 23 1013.6
20191021183822 51 337 2.0 4.0 0.00 0.00 0.00 26 1013.6
20191021183322 51 347 1.0 4.0 0.00 0.00 0.00 24 1013.6
20191021182821 51 63 1.0 3.0 0.00 0.00 0.00 27 1013.6
20191021182322 50 61 0.0 3.0 0.00 0.00 0.00 26 1013.7
20191021181822 50 0 1.0 3.0 0.00 0.00 0.00 27 1013.7
20191021181321 50 39 0.0 2.0 0.00 0.00 0.00 25 1013.7
20191021180822 50 51 1.0 2.0 0.00 0.00 0.00 27 1013.7
20191021180320 50 107 0.0 2.0 0.00 0.00 0.00 27 1013.6
20191021175820 50 55 0.0 2.0 0.00 0.00 0.00 25 1013.7
20191021175321 50 49 0.0 4.0 0.00 0.00 0.00 26 1013.7
20191021174821 50 310 2.0 4.0 0.00 0.00 0.00 24 1013.7
20191021174320 51 32 1.0 2.0 0.00 0.00 0.00 26 1013.6
20191021173819 50 103 0.0 3.0 0.00 0.00 0.00 28 1013.6
20191021173320 50 199 1.0 3.0 0.00 0.00 0.00 25 1013.6
20191021172819 50 189 1.0 4.0 0.00 0.00 0.00 27 1013.4
20191021172321 50 203 1.0 4.0 0.00 0.00 0.00 26 1013.6
20191021171820 50 258 0.0 2.0 0.00 0.00 0.00 26 1013.6
20191021171320 49 351 0.0 4.0 0.00 0.00 0.00 27 1013.4
20191021170819 48 247 0.0 4.0 0.00 0.00 0.00 27 1013.6
20191021170320 48 281 2.0 6.0 0.00 0.00 0.00 28 1013.6
20191021165819 48 199 1.0 6.0 0.00 0.00 0.00 30 1013.6
20191021165319 48 189 0.0 6.0 0.00 0.00 0.00 31 1013.6
20191021164820 48 157 2.0 4.0 0.00 0.00 0.00 32 1013.7
20191021164319 48 219 1.0 4.0 0.00 0.00 0.00 30 1013.7
20191021163818 48 193 1.0 2.0 0.00 0.00 0.00 32 1013.7
20191021163318 48 212 0.0 1.0 0.00 0.00 0.00 32 1013.8
20191021162818 48 237 0.0 1.0 0.00 0.00 0.00 31 1013.7
20191021162319 47 195 0.0 1.0 0.00 0.00 0.00 32 1013.8
20191021161818 46 48 0.0 1.0 0.00 0.00 0.00 35 1013.8
20191021161318 45 32 0.0 1.0 0.00 0.00 0.00 35 1013.8
20191021160817 44 109 0.0 1.0 0.00 0.00 0.00 36 1013.8
20191021160318 44 28 0.0 1.0 0.00 0.00 0.00 38 1013.8
20191021155819 43 8 0.0 1.0 0.00 0.00 0.00 39 1013.8
20191021155319 42 298 0.0 3.0 0.00 0.00 0.00 38 1013.8
20191021154819 42 313 2.0 3.0 0.00 0.00 0.00 40 1013.9
20191021154318 41 195 0.0 3.0 0.00 0.00 0.00 42 1013.8
20191021153817 40 302 1.0 4.0 0.00 0.00 0.00 43 1013.8
20191021153317 40 302 0.0 4.0 0.00 0.00 0.00 44 1013.8
20191021152817 39 302 0.0 3.0 0.00 0.00 0.00 47 1013.8
20191021152318 38 282 1.0 3.0 0.00 0.00 0.00 48 1013.8
20191021151818 37 234 1.0 3.0 0.00 0.00 0.00 52 1013.8
20191021151317 36 283 0.0 5.0 0.00 0.00 0.00 55 1013.9
20191021150818 35 262 0.0 5.0 0.00 0.00 0.00 56 1013.8
20191021150317 34 292 1.0 2.0 0.00 0.00 0.00 60 1013.8
20191021145816 33 290 1.0 3.0 0.00 0.00 0.00 62 1013.7
20191021145317 32 238 1.0 2.0 0.00 0.00 0.00 64 1013.6
20191021144817 31 209 0.0 1.0 0.00 0.00 0.00 63 1013.6
20191021144316 32 338 0.0 1.0 0.00 0.00 0.00 59 1013.6
20191021143816 32 340 0.0 1.0 0.00 0.00 0.00 59 1013.6
20191021143316 32 340 0.0 0.0 0.00 0.00 0.00 58 1013.6
20191021142816 33 340 0.0 1.0 0.00 0.00 0.00 57 1013.2
20191021142316 33 306 0.0 1.0 0.00 0.00 0.00 56 1013.2
20191021141816 34 276 0.0 2.0 0.00 0.00 0.00 52 1013.2
20191021141315 34 319 1.0 3.0 0.00 0.00 0.00 51 1013.1
20191021140815 34 271 0.0 3.0 0.00 0.00 0.00 51 1013.1
20191021140315 34 307 0.0 4.0 0.00 0.00 0.00 52 1013.0
20191021135814 33 264 1.0 4.0 0.00 0.00 0.00 52 1012.8
20191021135315 32 127 0.0 1.0 0.00 0.00 0.00 56 1012.8
20191021134816 32 137 0.0 1.0 0.00 0.00 0.00 56 1012.6
20191021134316 32 97 0.0 1.0 0.00 0.00 0.00 54 1012.6
20191021133815 32 298 0.0 1.0 0.00 0.00 0.00 54 1012.5
20191021133314 33 296 0.0 1.0 0.00 0.00 0.00 51 1012.4
20191021132814 34 11 0.0 1.0 0.00 0.00 0.00 49 1012.3
20191021132314 34 38 0.0 1.0 0.00 0.00 0.00 49 1012.1
20191021131815 34 125 0.0 1.0 0.00 0.00 0.00 49 1012.2
20191021131315 35 131 0.0 1.0 0.00 0.00 0.00 48 1012.1
20191021130814 35 131 0.0 1.0 0.00 0.00 0.00 47 1012.1
20191021130313 35 90 0.0 3.0 0.00 0.00 0.00 47 1012.2
20191021125814 35 38 0.0 5.0 0.00 0.00 0.00 47 1011.8
20191021125313 35 0 2.0 5.0 0.00 0.00 0.00 48 1011.9
20191021124814 34 1 2.0 5.0 0.00 0.00 0.00 49 1011.8
20191021124314 34 16 1.0 3.0 0.00 0.00 0.00 50 1011.8
20191021123814 33 17 0.0 2.0 0.00 0.00 0.00 52 1011.8
20191021123314 32 351 0.0 2.0 0.00 0.00 0.00 54 1011.8
20191021122814 30 56 0.0 1.0 0.00 0.00 0.00 57 1011.8
20191021122313 29 345 0.0 1.0 0.00 0.00 0.00 60 1011.9
20191021121813 29 333 0.0 0.0 0.00 0.00 0.00 59 1011.8
20191021121312 29 333 0.0 0.0 0.00 0.00 0.00 59 1011.7
20191021120812 30 333 0.0 0.0 0.00 0.00 0.00 60 1011.7
20191021120312 29 357 0.0 0.0 0.00 0.00 0.00 58 1011.7
20191021115811 29 357 0.0 0.0 0.00 0.00 0.00 60 1011.6
20191021115312 29 355 0.0 0.0 0.00 0.00 0.00 61 1011.5
20191021114813 29 350 0.0 0.0 0.00 0.00 0.00 65 1011.5
20191021114313 29 350 0.0 0.0 0.00 0.00 0.00 62 1011.5
20191021113812 29 348 0.0 0.0 0.00 0.00 0.00 60 1011.4
20191021113311 30 348 0.0 1.0 0.00 0.00 0.00 59 1011.5
20191021112811 31 348 0.0 1.0 0.00 0.00 0.00 58 1011.4
20191021112311 32 35 0.0 1.0 0.00 0.00 0.00 54 1011.4
20191021111812 31 35 0.0 0.0 0.00 0.00 0.00 54 1011.4
20191021111312 32 35 0.0 0.0 0.00 0.00 0.00 53 1011.2
20191021110811 32 35 0.0 1.0 0.00 0.00 0.00 53 1011.4
20191021110311 33 35 0.0 1.0 0.00 0.00 0.00 54 1011.5
20191021105810 33 302 0.0 3.0 0.00 0.00 0.00 53 1011.4
20191021105311 33 290 2.0 3.0 0.00 0.00 0.00 53 1011.4
20191021104811 33 149 0.0 1.0 0.00 0.00 0.00 49 1011.1
20191021104312 34 97 0.0 0.0 0.00 0.00 0.00 47 1011.1
20191021103810 34 97 0.0 1.0 0.00 0.00 0.00 47 1010.9
20191021103310 34 44 0.0 2.0 0.00 0.00 0.00 47 1011.0
20191021102811 34 134 0.0 2.0 0.00 0.00 0.00 48 1011.0
20191021102310 34 28 0.0 2.0 0.00 0.00 0.00 49 1011.0
20191021101811 33 56 1.0 2.0 0.00 0.00 0.00 52 1011.0
20191021101311 33 0 0.0 2.0 0.00 0.00 0.00 57 1011.2
20191021100811 33 353 1.0 2.0 0.00 0.00 0.00 55 1011.2
20191021100309 33 65 0.0 1.0 0.00 0.00 0.00 54 1011.4
20191021095809 33 314 0.0 1.0 0.00 0.00 0.00 54 1011.4
20191021095309 33 117 0.0 1.0 0.00 0.00 0.00 53 1011.4
20191021094809 34 140 1.0 9.0 0.00 0.00 0.00 54 1011.4
20191021094310 34 109 0.0 9.0 0.00 0.00 0.00 52 1011.4
20191021093809 35 131 1.0 3.0 0.00 0.00 0.00 52 1011.5
20191021093309 36 148 1.0 3.0 0.00 0.00 0.00 47 1011.5
20191021092809 37 252 1.0 4.0 0.00 0.00 0.00 45 1011.5
20191021092309 38 245 1.0 4.0 0.00 0.00 0.00 40 1011.4
20191021091809 38 310 0.0 3.0 0.00 0.00 0.00 39 1011.4
20191021091309 38 261 1.0 4.0 0.00 0.00 0.00 39 1011.5
20191021090808 38 288 2.0 6.0 0.00 0.00 0.00 40 1011.5
20191021090308 38 283 2.0 9.0 0.00 0.00 0.00 40 1011.5
20191021085809 38 233 2.0 9.0 0.00 0.00 0.00 40 1011.7
20191021085308 38 293 3.0 6.0 0.00 0.00 0.00 40 1011.6
20191021084807 38 234 2.0 6.0 0.00 0.00 0.00 42 1011.7
20191021084308 39 240 2.0 14.0 0.00 0.00 0.00 43 1011.6
20191021083808 40 281 5.0 14.0 0.00 0.00 0.00 36 1011.5
20191021083307 40 295 7.0 13.0 0.00 0.00 0.00 36 1011.4
20191021082808 39 317 9.0 13.0 0.00 0.00 0.00 38 1011.5
20191021082308 38 286 2.0 6.0 0.00 0.00 0.00 41 1011.6
20191021081808 38 319 2.0 9.0 0.00 0.00 0.00 41 1011.6
20191021081308 36 30 4.0 9.0 0.00 0.00 0.00 45 1011.7
20191021080807 36 59 1.0 3.0 0.00 0.00 0.00 51 1011.7
20191021080307 36 56 0.0 5.0 0.00 0.00 0.00 49 1011.6
20191021075807 36 102 1.0 5.0 0.00 0.00 0.00 47 1011.7
20191021075307 37 23 0.0 1.0 0.00 0.00 0.00 48 1011.7
20191021074806 37 37 0.0 3.0 0.00 0.00 0.00 47 1011.7
20191021074307 37 358 1.0 3.0 0.00 0.00 0.00 47 1011.6
20191021073807 37 14 0.0 1.0 0.00 0.00 0.00 46 1011.7
20191021073306 37 52 0.0 1.0 0.00 0.00 0.00 47 1011.7
20191021072807 37 47 0.0 2.0 0.00 0.00 0.00 46 1011.6
20191021072306 38 11 0.0 2.0 0.00 0.00 0.00 44 1011.7
20191021071806 38 25 1.0 3.0 0.00 0.00 0.00 44 1011.7
20191021071307 37 10 0.0 3.0 0.00 0.00 0.00 44 1011.7
20191021070807 37 8 0.0 2.0 0.00 0.00 0.00 44 1011.7
20191021070306 37 4 1.0 2.0 0.00 0.00 0.00 44 1011.7
20191021065805 37 358 0.0 1.0 0.00 0.00 0.00 44 1011.6
20191021065305 38 290 0.0 1.0 0.00 0.00 0.00 44 1011.6
20191021064805 38 290 0.0 2.0 0.00 0.00 0.00 43 1011.6
20191021064306 39 44 0.0 1.0 0.00 0.00 0.00 42 1011.5
20191021063806 40 7 0.0 7.0 0.00 0.00 0.00 41 1011.5
20191021063306 40 293 1.0 7.0 0.00 0.00 0.00 41 1011.6
20191021062805 40 245 1.0 4.0 0.00 0.00 0.00 41 1011.6
20191021062304 39 262 0.0 5.0 0.00 0.00 0.00 42 1011.6
20191021061804 39 286 1.0 5.0 0.00 0.00 0.00 43 1011.7
20191021061305 38 279 2.0 5.0 0.00 0.00 0.00 44 1011.7
20191021060806 38 307 1.0 4.0 0.00 0.00 0.00 45 1011.7
20191021060304 38 323 1.0 4.0 0.00 0.00 0.00 45 1011.7
20191021055804 38 288 2.0 4.0 0.00 0.00 0.00 46 1011.6
20191021055304 38 337 1.0 3.0 0.00 0.00 0.00 45 1011.7
20191021054803 39 292 2.0 3.0 0.00 0.00 0.00 44 1011.7
20191021054303 39 285 2.0 6.0 0.00 0.00 0.00 45 1011.7
20191021053805 39 289 3.0 7.0 0.00 0.00 0.00 44 1011.7
20191021053303 39 303 4.0 9.0 0.00 0.00 0.00 44 1011.7
20191021052803 39 313 5.0 9.0 0.00 0.00 0.00 44 1011.7
20191021052304 39 321 4.0 7.0 0.00 0.00 0.00 44 1011.7
20191021051803 39 324 2.0 7.0 0.00 0.00 0.00 47 1011.7
20191021051302 38 24 2.0 4.0 0.00 0.00 0.00 48 1011.9
20191021050804 39 28 0.0 9.0 0.00 0.00 0.00 48 1011.8
20191021050302 40 293 0.0 9.0 0.00 0.00 0.00 47 1011.8
20191021045801 40 120 0.0 11.0 0.00 0.00 0.00 45 1011.9
20191021045302 40 0 3.0 11.0 0.00 0.00 0.00 43 1011.8
20191021044802 39 302 5.0 9.0 0.00 0.00 0.00 45 1011.9
20191021044301 38 323 3.0 9.0 0.00 0.00 0.00 46 1012.1
20191021043803 37 289 1.0 2.0 0.00 0.00 0.00 50 1012.1
20191021043303 37 125 0.0 3.0 0.00 0.00 0.00 51 1011.9
20191021042801 37 285 1.0 2.0 0.00 0.00 0.00 51 1011.8
20191021042302 38 13 0.0 2.0 0.00 0.00 0.00 49 1011.7
20191021041802 38 274 0.0 3.0 0.00 0.00 0.00 47 1011.7
20191021041302 39 21 2.0 6.0 0.00 0.00 0.00 47 1011.8
20191021040802 39 344 4.0 5.0 0.00 0.00 0.00 46 1011.9
20191021040301 39 20 3.0 5.0 0.00 0.00 0.00 44 1012.2
20191021035801 39 286 0.0 4.0 0.00 0.00 0.00 44 1011.9
20191021035301 38 1 1.0 4.0 0.00 0.00 0.00 45 1011.9
20191021034801 39 47 0.0 3.0 0.00 0.00 0.00 45 1012.1
20191021034300 41 128 0.0 3.0 0.00 0.00 0.00 41 1011.8
20191021033802 40 31 0.0 4.0 0.00 0.00 0.00 42 1012.1
20191021033301 39 309 1.0 4.0 0.00 0.00 0.00 44 1011.9
20191021032801 39 59 0.0 3.0 0.00 0.00 0.00 45 1011.8
20191021032300 39 117 0.0 3.0 0.00 0.00 0.00 44 1011.7
20191021031800 39 133 0.0 0.0 0.00 0.00 0.00 44 1011.7
20191021031300 38 133 0.0 2.0 0.00 0.00 0.00 45 1011.7
20191021030801 38 220 0.0 4.0 0.00 0.00 0.00 45 1011.5
20191021030301 38 196 2.0 4.0 0.00 0.00 0.00 45 1011.4
20191021025800 39 128 0.0 2.0 0.00 0.00 0.00 46 1011.4
20191021025259 40 169 0.0 2.0 0.00 0.00 0.00 43 1011.4
20191021024800 40 16 0.0 1.0 0.00 0.00 0.00 42 1011.5
20191021024300 40 316 0.0 2.0 0.00 0.00 0.00 42 1011.5
20191021023800 40 306 0.0 2.0 0.00 0.00 0.00 41 1011.4
20191021023300 41 333 0.0 4.0 0.00 0.00 0.00 40 1011.2
20191021022759 42 331 0.0 7.0 0.00 0.00 0.00 39 1011.2
20191021022259 42 21 1.0 7.0 0.00 0.00 0.00 38 1011.2
20191021021758 42 8 2.0 5.0 0.00 0.00 0.00 38 1011.2
20191021021259 42 331 3.0 5.0 0.00 0.00 0.00 39 1011.1
20191021020759 43 309 0.0 7.0 0.00 0.00 0.00 38 1011.0
20191021020300 43 316 4.0 18.0 0.00 0.00 0.00 38 1011.1
20191021015758 43 300 4.0 18.0 0.00 0.00 0.00 37 1011.1
20191021015258 43 338 10.0 12.0 0.00 0.00 0.00 38 1010.9
20191021014758 43 323 2.0 16.0 0.00 0.00 0.00 38 1010.7
20191021014258 43 323 10.0 17.0 0.00 0.00 0.00 38 1010.5
20191021013759 43 269 4.0 12.0 0.00 0.00 0.00 37 1010.8
20191021013259 43 300 4.0 11.0 0.00 0.00 0.00 39 1010.7
20191021012758 43 252 5.0 16.0 0.00 0.00 0.00 37 1010.4
20191021012257 43 296 5.0 16.0 0.00 0.00 0.00 37 1010.1
20191021011758 43 221 6.0 12.0 0.00 0.00 0.00 38 1010.0
20191021011257 42 200 4.0 12.0 0.00 0.00 0.00 39 1010.0
20191021010758 42 278 4.0 12.0 0.00 0.00 0.00 39 1009.9
20191021010259 42 275 5.0 9.0 0.00 0.00 0.00 39 1009.9
20191021005757 42 309 3.0 9.0 0.00 0.00 0.00 39 1009.7
20191021005257 43 279 2.0 11.0 0.00 0.00 0.00 40 1009.6
20191021004758 43 295 4.0 11.0 0.00 0.00 0.00 39 1009.6
20191021004257 43 316 5.0 12.0 0.00 0.00 0.00 40 1009.6
20191021003756 43 310 5.0 12.0 0.00 0.00 0.00 38 1009.5
20191021003258 43 300 7.0 12.0 0.00 0.00 0.00 38 1009.5
20191021002756 43 348 5.0 12.0 0.00 0.00 0.00 38 1009.4
20191021002257 43 327 3.0 11.0 0.00 0.00 0.00 37 1009.4
20191021001756 44 316 5.0 12.0 0.00 0.00 0.00 38 1009.3
20191021001255 44 324 7.0 12.0 0.00 0.00 0.00 38 1009.0
20191021000755 44 314 6.0 13.0 0.00 0.00 0.00 37 1009.0
20191021000257 45 310 8.0 16.0 0.00 0.00 0.00 36 1008.8
20191020235755 45 329 10.0 16.0 0.00 0.00 0.00 35 1008.8
20191020235256 46 312 10.0 20.0 0.00 0.00 0.00 35 1008.9